KM7EKW Weather Reports


Display with metric or nautical units.
time (UTC)temp
F
wind
direction
speed
MPH
gust
MPH
rain 1hr
in
rain 24hr
in
rain mn
in
humidity
%
barometer
mb
20260507034445 55 148 1.0 4.0 0.00 0.00 0.00 85 1007.0
20260507033944 55 191 3.0 7.0 0.00 0.00 0.00 85 1007.0
20260507033444 55 250 2.0 7.0 0.00 0.00 0.00 85 1007.0
20260507032944 55 224 4.0 7.0 0.00 0.00 0.00 84 1007.0
20260507032446 55 131 3.0 9.0 0.00 0.00 0.00 84 1007.0
20260507031945 55 197 5.0 9.0 0.00 0.00 0.00 83 1008.0
20260507031447 56 166 2.0 5.0 0.00 0.00 0.00 82 1008.0
20260507030947 56 216 2.0 5.0 0.00 0.00 0.00 82 1008.0
20260507030446 56 211 1.0 4.0 0.00 0.00 0.00 82 1008.0
20260507025944 56 166 4.0 7.0 0.00 0.00 0.00 81 1008.0
20260507025449 56 181 4.0 6.0 0.00 0.00 0.00 81 1008.0
20260507024945 56 214 5.0 6.0 0.00 0.00 0.00 81 1008.0
20260507024447 56 188 3.0 6.0 0.00 0.00 0.00 80 1008.0
20260507023946 56 189 3.0 7.0 0.00 0.00 0.00 80 1008.0
20260507023446 56 225 4.0 7.0 0.00 0.00 0.00 80 1008.0
20260507022948 57 180 4.0 8.0 0.00 0.00 0.00 79 1008.0
20260507022449 57 180 4.0 8.0 0.00 0.00 0.00 79 1008.0
20260507021944 57 140 3.0 8.0 0.00 0.00 0.00 78 1008.0
20260507021445 57 119 4.0 8.0 0.00 0.00 0.00 78 1008.0
20260507020947 57 157 4.0 7.0 0.00 0.00 0.00 77 1008.0
20260507020446 57 206 5.0 7.0 0.00 0.00 0.00 77 1008.0
20260507015944 57 199 4.0 7.0 0.00 0.00 0.00 77 1008.0
20260507015445 57 220 5.0 9.0 0.00 0.00 0.00 76 1008.0
20260507014946 58 188 4.0 7.0 0.00 0.00 0.00 76 1008.0
20260507014447 58 169 4.0 7.0 0.00 0.00 0.00 76 1008.0
20260507013946 58 207 3.0 7.0 0.00 0.00 0.00 75 1008.0
20260507013447 58 120 3.0 8.0 0.00 0.00 0.00 76 1008.0
20260507012944 58 245 3.0 8.0 0.00 0.00 0.00 76 1008.0
20260507012444 58 266 3.0 6.0 0.00 0.00 0.00 76 1008.0
20260507011944 58 245 4.0 10.0 0.00 0.00 0.00 75 1008.0
20260507011446 58 140 6.0 10.0 0.00 0.00 0.00 75 1008.0
20260507010946 58 181 4.0 7.0 0.00 0.00 0.00 76 1008.0
20260507010446 58 192 5.0 7.0 0.00 0.00 0.00 76 1008.0
20260507005947 58 217 5.0 8.0 0.00 0.00 0.00 75 1008.0
20260507005445 58 195 6.0 9.0 0.00 0.00 0.00 75 1008.0
20260507004947 58 223 5.0 8.0 0.00 0.00 0.00 75 1008.0
20260507004445 58 173 4.0 8.0 0.00 0.00 0.00 75 1008.0
20260507003946 58 130 4.0 8.0 0.00 0.00 0.00 75 1008.0
20260507003446 58 134 4.0 8.0 0.00 0.00 0.00 76 1008.0
20260507002949 58 182 5.0 7.0 0.00 0.00 0.00 76 1008.0
20260507002449 58 200 4.0 6.0 0.00 0.00 0.00 76 1008.0
20260507001946 58 224 6.0 8.0 0.00 0.00 0.00 76 1008.0
20260507001446 58 150 6.0 9.0 0.00 0.00 0.00 76 1008.0
20260507000945 58 194 6.0 9.0 0.00 0.00 0.00 75 1008.0
20260507000446 58 240 8.0 11.0 0.00 0.00 0.00 76 1008.0
20260506235947 58 192 4.0 9.0 0.00 0.00 0.00 76 1008.0
20260506235444 58 192 5.0 9.0 0.00 0.00 0.00 76 1008.0
20260506234947 58 175 5.0 9.0 0.00 0.00 0.00 75 1008.0
20260506234447 58 177 6.0 9.0 0.00 0.00 0.00 75 1008.0
20260506233944 58 217 5.0 10.0 0.00 0.00 0.00 75 1007.0
20260506233445 58 210 6.0 9.0 0.00 0.00 0.00 75 1007.0
20260506232948 58 199 4.0 7.0 0.00 0.00 0.00 75 1007.0
20260506232445 58 198 5.0 10.0 0.00 0.00 0.00 75 1007.0
20260506231946 58 193 7.0 10.0 0.00 0.00 0.00 75 1006.0
20260506231447 58 160 5.0 8.0 0.00 0.00 0.00 75 1006.0
20260506230945 58 115 4.0 8.0 0.00 0.00 0.00 75 1005.0
20260506230445 58 173 3.0 7.0 0.00 0.00 0.00 75 1005.0
20260506225944 58 218 6.0 8.0 0.00 0.00 0.00 76 1004.0
20260506225447 58 154 4.0 11.0 0.00 0.00 0.00 74 1003.0
20260506224946 58 201 7.0 11.0 0.00 0.00 0.00 75 1003.0
20260506224445 59 122 7.0 10.0 0.00 0.00 0.00 73 1003.0
20260506223947 59 145 4.0 7.0 0.00 0.00 0.00 74 1005.0
20260506223445 59 219 3.0 9.0 0.00 0.00 0.00 75 1006.0
20260506222945 58 131 4.0 9.0 0.00 0.00 0.00 75 1007.0
20260506222444 58 219 4.0 8.0 0.00 0.00 0.00 74 1007.0
20260506221946 58 166 5.0 8.0 0.00 0.00 0.00 75 1007.0
20260506221444 58 206 4.0 7.0 0.00 0.00 0.00 75 1007.0
20260506220947 58 150 5.0 10.0 0.00 0.00 0.00 75 1007.0
20260506220445 58 167 6.0 9.0 0.00 0.00 0.00 75 1007.0
20260506215948 58 128 4.0 9.0 0.00 0.00 0.00 75 1007.0
20260506215445 58 188 4.0 8.0 0.00 0.00 0.00 75 1007.0
20260506214945 58 271 5.0 10.0 0.00 0.00 0.00 75 1007.0
20260506214448 57 173 6.0 10.0 0.00 0.00 0.00 76 1007.0
20260506213947 57 199 6.0 10.0 0.00 0.00 0.00 75 1007.0
20260506213446 57 205 5.0 10.0 0.00 0.00 0.00 76 1007.0
20260506212945 57 176 6.0 8.0 0.00 0.00 0.00 76 1007.0
20260506212446 57 170 5.0 7.0 0.00 0.00 0.00 75 1007.0
20260506211947 57 238 3.0 5.0 0.00 0.00 0.00 76 1007.0
20260506211447 56 205 4.0 10.0 0.00 0.00 0.00 77 1007.0
20260506210630 57 194 7.0 9.0 0.00 0.00 0.00 75 1007.0
20260506205947 57 221 6.0 9.0 0.00 0.00 0.00 75 1007.0
20260506205450 57 211 4.0 10.0 0.00 0.00 0.00 74 1007.0
20260506204945 57 199 5.0 10.0 0.00 0.00 0.00 74 1007.0
20260506204445 57 177 4.0 8.0 0.00 0.00 0.00 74 1007.0
20260506203947 57 243 6.0 8.0 0.00 0.00 0.00 74 1007.0
20260506203448 57 177 5.0 10.0 0.00 0.00 0.00 74 1008.0
20260506202947 57 174 4.0 9.0 0.00 0.00 0.00 74 1008.0
20260506202450 57 197 5.0 10.0 0.00 0.00 0.00 74 1008.0
20260506201947 56 169 8.0 13.0 0.00 0.00 0.00 74 1008.0
20260506201449 57 143 6.0 10.0 0.00 0.00 0.00 74 1008.0
20260506200946 57 178 5.0 11.0 0.00 0.00 0.00 75 1008.0
20260506200451 56 193 7.0 11.0 0.00 0.00 0.00 75 1008.0
20260506195947 56 167 6.0 14.0 0.00 0.00 0.00 74 1008.0
20260506195445 56 217 7.0 11.0 0.00 0.00 0.00 74 1008.0
20260506194949 56 248 5.0 11.0 0.00 0.00 0.00 74 1008.0
20260506194446 56 177 8.0 15.0 0.00 0.00 0.00 74 1008.0
20260506193949 56 205 8.0 15.0 0.00 0.00 0.00 76 1008.0
20260506193447 56 206 9.0 14.0 0.00 0.00 0.00 76 1007.0
20260506192945 56 181 7.0 14.0 0.00 0.00 0.00 76 1007.0
20260506192446 55 201 9.0 14.0 0.00 0.00 0.00 76 1007.0
20260506191944 55 276 8.0 12.0 0.00 0.00 0.00 76 1008.0
20260506191444 55 214 10.0 15.0 0.00 0.00 0.00 77 1008.0
20260506190946 55 191 7.0 13.0 0.00 0.00 0.00 76 1007.0
20260506190446 55 236 7.0 11.0 0.00 0.00 0.00 76 1007.0
20260506185944 55 210 6.0 12.0 0.00 0.00 0.00 77 1007.0
20260506185446 55 222 7.0 15.0 0.00 0.00 0.00 77 1007.0
20260506184946 55 137 6.0 13.0 0.00 0.00 0.00 77 1007.0
20260506184448 54 205 7.0 10.0 0.00 0.00 0.00 78 1007.0
20260506183945 54 248 9.0 17.0 0.00 0.00 0.00 78 1007.0
20260506183449 54 205 7.0 17.0 0.00 0.00 0.00 78 1007.0
20260506182947 55 193 5.0 14.0 0.00 0.00 0.00 78 1007.0
20260506182447 55 217 8.0 14.0 0.00 0.00 0.00 77 1007.0
20260506181949 55 189 4.0 10.0 0.00 0.00 0.00 78 1007.0
20260506181447 55 176 6.0 10.0 0.00 0.00 0.00 77 1007.0
20260506180944 54 134 4.0 8.0 0.00 0.00 0.00 79 1007.0
20260506180447 54 235 7.0 10.0 0.00 0.00 0.00 79 1007.0
20260506175946 54 192 5.0 15.0 0.00 0.00 0.00 80 1007.0
20260506175445 54 168 10.0 15.0 0.00 0.00 0.00 80 1007.0
20260506174948 54 223 5.0 9.0 0.00 0.00 0.00 81 1007.0
20260506174446 54 196 5.0 10.0 0.00 0.00 0.00 82 1007.0
20260506173947 54 164 6.0 11.0 0.00 0.00 0.00 82 1007.0
20260506173446 53 223 7.0 11.0 0.00 0.00 0.00 83 1007.0
20260506172946 53 214 6.0 9.0 0.00 0.00 0.00 83 1007.0
20260506172446 53 175 8.0 12.0 0.00 0.00 0.00 84 1007.0
20260506171949 53 221 7.0 11.0 0.00 0.00 0.00 84 1007.0
20260506171447 53 194 6.0 17.0 0.00 0.00 0.00 85 1007.0
20260506170949 53 200 10.0 17.0 0.00 0.00 0.00 85 1007.0
20260506170447 53 215 5.0 8.0 0.00 0.00 0.00 85 1006.0
20260506165948 53 159 5.0 9.0 0.00 0.00 0.00 87 1006.0
20260506165447 53 196 6.0 9.0 0.00 0.00 0.00 88 1006.0
20260506164945 52 143 4.0 7.0 0.00 0.00 0.00 88 1006.0
20260506164448 52 207 4.0 11.0 0.00 0.00 0.00 89 1006.0
20260506163947 52 209 7.0 12.0 0.00 0.00 0.00 89 1006.0
20260506163447 53 201 6.0 12.0 0.00 0.00 0.00 89 1006.0
20260506162947 53 211 5.0 9.0 0.00 0.00 0.00 90 1006.0
20260506162447 53 157 4.0 8.0 0.00 0.00 0.00 88 1006.0
20260506161948 53 198 5.0 8.0 0.00 0.00 0.00 89 1006.0
20260506161447 53 245 6.0 8.0 0.00 0.00 0.00 89 1006.0
20260506160947 53 209 6.0 8.0 0.00 0.00 0.00 89 1006.0
20260506160447 53 176 5.0 9.0 0.00 0.00 0.00 89 1006.0
20260506155949 53 192 7.0 9.0 0.00 0.00 0.00 89 1006.0
20260506155447 53 134 5.0 9.0 0.00 0.00 0.00 89 1006.0
20260506154947 53 129 3.0 9.0 0.00 0.00 0.00 88 1006.0
20260506154445 53 187 7.0 10.0 0.00 0.00 0.00 87 1006.0
20260506153948 53 166 6.0 10.0 0.00 0.00 0.00 87 1005.0
20260506153447 53 227 7.0 9.0 0.00 0.00 0.00 87 1006.0
20260506152947 54 199 4.0 8.0 0.00 0.00 0.00 86 1006.0
20260506152447 54 180 3.0 6.0 0.00 0.00 0.00 87 1006.0
20260506151946 53 235 3.0 9.0 0.00 0.00 0.00 87 1006.0
20260506151448 53 180 4.0 8.0 0.00 0.00 0.00 87 1006.0
20260506150945 53 197 6.0 10.0 0.00 0.00 0.00 88 1006.0
20260506150003 53 221 6.0 10.0 0.00 0.00 0.00 88 1006.0
20260506145446 53 124 6.0 8.0 0.00 0.00 0.00 88 1006.0
20260506144946 53 135 6.0 8.0 0.00 0.00 0.00 89 1006.0
20260506144449 53 197 4.0 8.0 0.00 0.00 0.00 89 1006.0
20260506143946 53 222 4.0 7.0 0.00 0.00 0.00 90 1006.0
20260506143445 53 193 3.0 6.0 0.00 0.00 0.00 90 1006.0
20260506142947 52 171 4.0 7.0 0.00 0.00 0.00 90 1006.0
20260506142451 52 195 3.0 6.0 0.00 0.00 0.00 91 1006.0
20260506141946 52 181 3.0 7.0 0.00 0.00 0.00 91 1006.0
20260506141448 52 190 4.0 6.0 0.00 0.00 0.00 91 1006.0
20260506140946 52 221 3.0 7.0 0.00 0.00 0.00 91 1006.0
20260506140451 52 128 4.0 7.0 0.00 0.00 0.00 91 1006.0
20260506135949 52 154 2.0 6.0 0.00 0.00 0.00 91 1006.0
20260506135447 52 205 4.0 6.0 0.00 0.00 0.00 91 1006.0
20260506134947 52 181 4.0 6.0 0.00 0.00 0.00 92 1006.0
20260506134449 52 152 2.0 4.0 0.00 0.00 0.00 92 1006.0
20260506133948 52 224 3.0 4.0 0.00 0.00 0.00 92 1006.0
20260506133447 52 173 2.0 6.0 0.00 0.00 0.00 92 1006.0
20260506132948 52 215 3.0 8.0 0.00 0.00 0.00 92 1006.0
20260506132446 52 114 5.0 7.0 0.00 0.00 0.00 92 1006.0
20260506131946 52 126 4.0 10.0 0.00 0.00 0.00 92 1006.0
20260506131446 52 172 6.0 10.0 0.00 0.00 0.00 91 1006.0
20260506130946 52 189 5.0 7.0 0.00 0.00 0.00 91 1006.0
20260506130449 52 213 4.0 7.0 0.00 0.00 0.00 91 1006.0
20260506125947 52 113 4.0 7.0 0.00 0.00 0.00 91 1006.0
20260506125449 52 181 3.0 8.0 0.00 0.00 0.00 91 1006.0
20260506124946 52 215 5.0 10.0 0.00 0.00 0.00 91 1006.0
20260506124446 52 127 4.0 10.0 0.00 0.00 0.00 91 1006.0
20260506123948 52 196 3.0 8.0 0.00 0.00 0.00 91 1006.0
20260506123447 52 182 3.0 8.0 0.00 0.00 0.00 91 1006.0
20260506122948 52 185 3.0 8.0 0.00 0.00 0.00 91 1006.0
20260506122447 52 160 3.0 10.0 0.00 0.00 0.00 91 1006.0
20260506121948 52 141 6.0 8.0 0.00 0.00 0.00 91 1005.0
20260506121447 52 164 3.0 9.0 0.00 0.00 0.00 91 1005.0
20260506120947 52 132 6.0 9.0 0.00 0.00 0.00 91 1005.0
20260506120446 52 165 6.0 10.0 0.00 0.00 0.00 91 1006.0
20260506115947 52 197 6.0 10.0 0.00 0.00 0.00 91 1006.0
20260506115447 52 222 5.0 9.0 0.00 0.00 0.00 91 1006.0
20260506114947 52 164 3.0 9.0 0.00 0.00 0.00 91 1006.0
20260506114448 52 173 4.0 9.0 0.00 0.00 0.00 91 1005.0
20260506113944 52 152 5.0 9.0 0.00 0.00 0.00 91 1005.0
20260506113447 52 250 7.0 8.0 0.00 0.00 0.00 91 1005.0
20260506112946 52 121 4.0 8.0 0.00 0.00 0.00 90 1005.0
20260506112446 52 199 5.0 9.0 0.00 0.00 0.00 90 1005.0
20260506111947 52 135 5.0 8.0 0.00 0.00 0.00 90 1005.0
20260506111444 52 250 5.0 9.0 0.00 0.00 0.00 90 1005.0
20260506110948 52 200 5.0 9.0 0.00 0.00 0.00 90 1005.0
20260506110448 52 266 4.0 9.0 0.00 0.00 0.00 91 1005.0
20260506105946 52 116 5.0 9.0 0.00 0.00 0.00 91 1005.0
20260506105447 52 195 5.0 7.0 0.00 0.00 0.00 91 1005.0
20260506104945 52 198 3.0 7.0 0.00 0.00 0.00 91 1005.0
20260506104450 52 157 2.0 4.0 0.00 0.00 0.00 91 1005.0
20260506103947 52 175 3.0 4.0 0.00 0.00 0.00 91 1005.0
20260506103447 52 131 3.0 5.0 0.00 0.00 0.00 91 1005.0
20260506102946 52 264 2.0 3.0 0.00 0.00 0.00 91 1004.0
20260506102444 52 178 2.0 4.0 0.00 0.00 0.00 91 1005.0
20260506101947 52 210 3.0 4.0 0.00 0.00 0.00 91 1004.0
20260506101447 52 154 1.0 7.0 0.00 0.00 0.00 92 1004.0
20260506100947 52 119 3.0 7.0 0.00 0.00 0.00 92 1004.0
20260506100449 52 123 2.0 6.0 0.00 0.00 0.00 92 1004.0
20260506095946 52 210 3.0 6.0 0.00 0.00 0.00 92 1004.0
20260506095446 52 237 2.0 6.0 0.00 0.00 0.00 92 1004.0
20260506094945 52 212 1.0 6.0 0.00 0.00 0.00 92 1004.0
20260506094445 52 151 2.0 7.0 0.00 0.00 0.00 92 1004.0
20260506093944 52 220 5.0 10.0 0.00 0.00 0.00 92 1004.0
20260506093447 52 154 4.0 8.0 0.00 0.00 0.00 92 1004.0
20260506092947 52 227 4.0 8.0 0.00 0.00 0.00 93 1004.0
20260506092445 52 228 5.0 8.0 0.00 0.00 0.00 93 1004.0
20260506091947 52 119 4.0 7.0 0.00 0.00 0.00 93 1004.0
20260506091447 51 150 4.0 7.0 0.00 0.00 0.00 93 1004.0
20260506090945 51 105 3.0 7.0 0.00 0.00 0.00 93 1004.0
20260506090444 51 196 3.0 5.0 0.00 0.00 0.00 93 1004.0
20260506085947 51 182 3.0 8.0 0.00 0.00 0.00 93 1004.0
20260506085445 51 198 5.0 8.0 0.00 0.00 0.00 93 1004.0
20260506084944 51 219 2.0 4.0 0.00 0.00 0.00 93 1004.0
20260506084447 51 161 3.0 6.0 0.00 0.00 0.00 93 1004.0
20260506083946 51 183 3.0 5.0 0.00 0.00 0.00 92 1003.0
20260506083444 51 174 3.0 4.0 0.00 0.00 0.00 92 1003.0
20260506082946 51 160 3.0 6.0 0.00 0.00 0.00 92 1003.0
20260506082445 51 223 3.0 7.0 0.00 0.00 0.00 92 1002.0
20260506081947 52 206 4.0 6.0 0.00 0.00 0.00 92 1002.0
20260506081447 52 186 2.0 5.0 0.00 0.00 0.00 91 1001.0
20260506080949 52 179 3.0 6.0 0.00 0.00 0.00 91 1000.0
20260506080445 52 181 3.0 6.0 0.00 0.00 0.00 91 999.0
20260506073446 53 181 3.0 4.0 0.00 0.00 0.00 90 1008.0
20260506072949 53 168 2.0 3.0 0.00 0.00 0.00 89 1008.0
20260506072446 53 177 2.0 3.0 0.00 0.00 0.00 89 1008.0
20260506071947 53 200 1.0 3.0 0.00 0.00 0.00 89 1008.0
20260506071446 53 261 0.0 3.0 0.00 0.00 0.00 88 1008.0
20260506070946 53 261 2.0 3.0 0.00 0.00 0.00 88 1008.0
20260506070448 54 211 1.0 4.0 0.00 0.00 0.00 87 1008.0
20260506062446 55 326 1.0 8.0 0.00 0.00 0.00 85 1009.0
20260506061944 55 6 6.0 8.0 0.00 0.00 0.00 85 1009.0
20260506061445 55 288 3.0 10.0 0.00 0.00 0.00 85 1009.0
20260506060952 55 212 4.0 10.0 0.00 0.00 0.00 85 1009.0
20260506060447 55 236 5.0 11.0 0.00 0.00 0.00 85 1010.0
20260506050946 57 212 8.0 15.0 0.00 0.00 0.00 80 1011.0
20260506050447 57 229 9.0 15.0 0.00 0.00 0.00 80 1012.0
20260506044945 58 271 8.0 13.0 0.00 0.00 0.00 80 1012.0
20260506044445 58 178 8.0 12.0 0.00 0.00 0.00 80 1012.0
20260506043944 58 178 8.0 13.0 0.00 0.00 0.00 80 1012.0
20260506043444 59 232 7.0 10.0 0.00 0.00 0.00 80 1012.0
20260506042944 59 244 6.0 11.0 0.00 0.00 0.00 80 1012.0
20260506042444 59 259 5.0 11.0 0.00 0.00 0.00 80 1012.0
20260506041945 59 201 7.0 12.0 0.00 0.00 0.00 79 1012.0
20260506041445 59 197 6.0 9.0 0.00 0.00 0.00 79 1012.0
20260506040945 60 182 6.0 8.0 0.00 0.00 0.00 79 1012.0
20260506040444 60 226 6.0 8.0 0.00 0.00 0.00 78 1012.0
20260506035946 60 235 5.0 7.0 0.00 0.00 0.00 78 1012.0
20260506035445 60 201 4.0 7.0 0.00 0.00 0.00 78 1011.0
20260506034945 60 170 5.0 7.0 0.00 0.00 0.00 77 1011.0